Location: Asheville, NC
(35.6000°N, 82.5500°W)
Time: 22:48:08
(UTC-05:00)

Vanguard 3 - Pass Details

Date: 16 December 2017
Orbit: 508 x 3264 km, 33.4° (Epoch: 17 January)

Event Time Altitude Azimuth Distance (km) Brightness Sun altitude
Rises 10:03:24 0° 221° (SW) 4,895 11.3 22.1°
Reaches altitude 10° 10:07:57 10° 210° (SSW) 3,382 10.7 22.6°
Maximum altitude 10:13:58 24° 161° (SSE) 1,882 11.2 23.3°
Drops below altitude 10° 10:18:08 10° 108° (ESE) 2,250 10.3 23.7°
Sets 10:20:29 0° 92° (E) 2,952 10.5 24.0°
